Regional Weather Roundup
Issued by NWS Charleston, SC

Current Version | Previous Version | Graphics & Text | Print | Product List | Glossary On
Versions: 1 2 3 4 5 6 7 8 9 10 11 12 13 14 15 16 17 18 19 20 21 22 23 24 25 26 27 28 29 30 31 32 33 34 35 36 37 38 39 40 41 42 43 44 45 46 47 48 49 50
000 ASUS42 KCHS 212210 RWRCHS REGIONAL WEATHER ROUNDUP NATIONAL WEATHER SERVICE CHARLESTON SC 500 PM EST TUE FEB 21 2017 NOTE: "FAIR" INDICATES FEW OR NO CLOUDS BELOW 12,000 FEET WITH NO SIGNIFICANT WEATHER AND/OR OBSTRUCTIONS TO VISIBILITY. NOT ALL STATIONS ARE QUALITY CONTROLLED. USE DATA WITH CAUTION... ESPECIALLY DEWPOINT OBSERVATIONS. SCZ027-030-031-034>040-042>050-212300- ...SOUTHEAST SOUTH CAROLINA... CITY SKY/WX TMP DP RH WIND PRES REMARKS N CHARLESTON CLOUDY 67 58 72 E14 30.08R WATERFRONT PRK N/A 64 60 87 E8G15 30.06S MOUNT PLEASANT CLOUDY 64 59 82 NE6 30.09R JOHNS ISLAND CLOUDY 66 61 82 NE12 30.08R PINOPOLIS N/A 66 57 72 E7 29.99F MONCKS CORNER CLOUDY 66 55 68 E7 30.08S SUMMERVILLE CLOUDY 68 57 68 E7 30.08S BEAUFORT MCAS CLOUDY 67 61 81 SE10 30.06S BEAUFORT ARPT CLOUDY 68 59 73 E7 30.05S HILTON HEAD IS PTSUNNY 66 61 82 E5 30.06S WALTERBORO CLOUDY 68 59 73 E9 30.07S ALLENDALE CLOUDY 68 59 73 VRB5 30.03F ...SOUTHERN MIDLANDS AND PEE DEE... CITY SKY/WX TMP DP RH WIND PRES REMARKS GEORGETOWN CLOUDY 61 54 77 E10 30.11F KINGSTREE MOCLDY 64 52 63 E8 30.10R ORANGEBURG CLOUDY 68 55 63 E6 30.07S BARNWELL CLOUDY 70 61 73 E10 30.05F AIKEN MOCLDY 66 54 63 E8 30.09S MANNING CLOUDY 64 43 45 MISG 30.10R COLUMBIA PTSUNNY 69 52 54 E10 30.07S SUMTER CLOUDY 67 51 56 SE7 30.06S FLORENCE PTSUNNY 68 45 43 SE7 30.10F MYRTLE BEACH MOSUNNY 61 52 72 E12 30.13S N MYRTLE BEACH CLOUDY 63 53 70 E8 30.11S $$ GAZ063-065-086>088-099>101-113>116-118-119-134>141-150-212300- ...SOUTHEAST GEORGIA... CITY SKY/WX TMP DP RH WIND PRES REMARKS SAVANNAH ARPT CLOUDY 72 60 66 SE12 30.02F HUNTER AAF CLOUDY 71 65 81 SE8 30.00F FORT STEWART PTSUNNY 74 59 60 SE9 30.00S STATESBORO CLOUDY 74 61 64 SE6 30.02S SYLVANIA CLOUDY N/A N/A N/A SE8 30.04S CLAXTON MOCLDY 73 73 100 E7 30.01S ...CSRA...CENTRAL AND FAR SOUTHEAST GEORGIA... CITY SKY/WX TMP DP RH WIND PRES REMARKS THOMSON CLOUDY 72 60 66 SE8 30.07S AUGUSTA-BUSH CLOUDY 73 57 57 E8 30.02F AUGUSTA-DANIEL CLOUDY 71 54 54 E10 30.04F SWAINSBORO CLOUDY 72 59 64 SE8 30.01F VIDALIA CLOUDY 73 61 64 SE6 30.00F EASTMAN CLOUDY 74 48 40 SE3 30.01F HAZLEHURST CLOUDY 74 60 61 SE3 29.99S ALMA CLOUDY 73 59 61 SE3 29.99F WAYCROSS PTSUNNY 77 63 61 SE7 29.99S JESUP MOCLDY 73 59 60 SE7 30.00F BAXLEY CLOUDY 75 63 64 SE6 29.99F BRUNSWICK CLOUDY 73 64 73 SE9 30.01F SAINT SIMONS CLOUDY 68 63 84 E8 30.01S $$ SCZ027-028-034-036>038-045-046-048>050-GAZ119-141-212300- ...LAKE AND SUPPLEMENTAL COASTAL OBSERVATIONS... STATION/POSITION TIME TEMP WIND PRES WAVE SWELL AIR SEA DIR/SP/G HT/PER HT/PER/DIR (UTC) (F) (DEG/KT/KT) (MB) (FT/S) (FT/S/D) WINYAH BAY 2045 59 60/ 11 1019.0 LAKE MURRAY 2120 66 110/ 4/ 6 1017.9 ACE BASIN NERRS 2045 72 100/ 5 1017.0 FORT PULASKI 2136 67 60 110/ 6/ 9 1017.5R SAPELO ISLAND 2100 73 120/ 5 1017.0 $$ ANZ835-935-AMZ111-154-330-350-352-354-370-450-454-472-212300- ...C-MAN AND BUOY OBSERVATIONS... STATION/POSITION TIME TEMP WIND PRES WAVE SWELL AIR SEA DIR/SP/G HT/PER HT/PER/DIR (UTC) (F) (DEG/KT/KT) (MB) (FT/S) (FT/S/D) BUOY 41004 2150 70 69 100/ 16/ 17 1017.6F 4/ 6 2/ 50/ 8 BUOY 41008 2150 65 63 100/ 6/ 8 1016.1F 3/ 6 2/ 90/ 6 FOLLY BEACH CMAN 2100 61 50/ 14/ 17 1018.8F CAPERS NEARSHORE 2108 60 59 60/ 14/ 19 1018.3F FRIPP NEARSHORE 2108 62 61 70/ 8/ 12 1017.4S STATION/POSITION TIME TEMP WIND PRES WAVE SWELL AIR SEA DIR/SP/G HT/PER HT/PER/DIR (UTC) (F) (DEG/KT/KT) (MB) (FT/S) (FT/S/D) 5E ST. MARYS GA 2130 65 N/A 2/ 4 FRYING PAN BUOY 2150 68 68 90/ 14/ 16 1019.4F 4/ 8 2/ 80/ 8 BUOY 41025 2150 64 75 110/ 12/ 16 1021.2F 4/ 8 3/ 50/ 8 CAPE LOOKOUT NC 2100 57 40/ 13/ 15 1020.9F BUOY 41002 2150 64 71 70/ 14/ 16 1020.0R 5/ 8 3/ 20/ 8 BUOY 41010 NOT AVBL ST AUGUSTINE FL 2200 69 68 140/ 8/ 9 1016.6F $$

USA.gov is the U.S. government's official web portal to all federal, state and local government web resources and services.